Regional Weather Roundup
Issued by NWS San Angelo, TX

Home | Current Version | Previous Version | Text Only | Print | Product List | Glossary On
Versions: 1 2 3 4 5 6 7 8 9 10 11 12 13 14 15 16 17 18 19 20 21 22 23 24 25 26 27 28 29 30 31 32 33 34 35 36 37 38 39 40 41 42 43 44 45 46 47 48 49 50
000
ASUS44 KSJT 021910
RWRSJT
WEST CENTRAL TEXAS REGIONAL WEATHER ROUNDUP
NATIONAL WEATHER SERVICE SAN ANGELO TX
200 PM CDT SUN AUG 02 2015

NOTE: "FAIR" INDICATES FEW OR NO CLOUDS BELOW 12,000 FEET WITH NO
SIGNIFICANT WEATHER AND/OR OBSTRUCTIONS TO VISIBILITY.

TXZ049-054-064>066-071>073-076>078-098-099-113-114-127-128-139-140-
154-155-168>170-022000
...LOCATIONS ACROSS WEST CENTRAL TEXAS...

CITY           SKY/WX    TMP DP  RH WIND       PRES   REMARKS
SAN ANGELO     SUNNY     96  60  30 NE6       29.96F
ABILENE        SUNNY     95  60  31 SE10G20   29.97F
DYESS AFB      SUNNY     95  62  34 SE10      29.96F
JUNCTION       MOSUNNY   95  59  30 SE5       29.97F
SWEETWATER     MOSUNNY   93  59  31 SE8       30.01F
BROWNWOOD      LGT RAIN  91  61  35 SE7       29.97F
COLEMAN        CLEAR     94  62  35 SE7       29.98F
SONORA         SUNNY     93  61  33 VRB3G12   30.02F
OZONA          FAIR      93  55  27 SE8       30.02F
BRADY          SUNNY     93  61  33 VRB7      29.98F
$$

TEXAS PANHANDLE/OKLAHOMA PANHANDLE

CITY           SKY/WX    TMP DP  RH WIND       PRES   REMARKS
AMARILLO       PTSUNNY   84  66  54 S10       30.03F
BORGER         SUNNY     89  68  49 S9        29.98F
CANADIAN       SUNNY     91  69  48 W8        29.95S
DALHART        SUNNY     89  62  40 VRB5      30.03F
DUMAS          CLEAR     87  63  45 S7        30.02S
GUYMON         NOT AVBL
HEREFORD       CLEAR     88  66  48 MISG      30.04F
PAMPA          CLEAR     89  66  46 W9        30.01F
PERRYTON       SUNNY     89  67  46 S10       29.97F
$$

SOUTHERN PANHANDLE/SOUTH PLAINS/ROLLING PLAINS

CITY           SKY/WX    TMP DP  RH WIND       PRES   REMARKS
LUBBOCK        MOSUNNY   90  64  42 S12       30.02F
SNYDER         MOSUNNY   92  63  37 SE7       29.99F
CHILDRESS      SUNNY     91  70  49 SW9G16    29.95F
SEMINOLE       PTCLDY    96  54  24 SW9G20    30.02F
$$

PERMIAN BASIN

CITY           SKY/WX    TMP DP  RH WIND       PRES   REMARKS
MIDLAND        SUNNY     96  56  26 S5        29.98F
ODESSA         SUNNY     97  54  23 S13       30.00F
WINK           SUNNY    100  55  22 MISG      29.95F
$$

FAR WEST/SOUTHWEST MOUNTAINS/TRANS PECOS

CITY           SKY/WX    TMP DP  RH WIND       PRES   REMARKS
ALPINE         MOCLDY    86  56  35 CALM      30.15F
DRYDEN           N/A     97  60  29 S10       29.95F
EL PASO        MOSUNNY   90  55  30 VRB3      30.04F
FORT STOCKTON  SUNNY     96  56  26 E8        29.99F
GUADALUPE PASS SUNNY     88  58  36 SW16G24   30.17F
MARFA          SUNNY     86  55  35 CALM      30.14F
PECOS          CLEAR     98  55  23 W5        29.95F
$$

DALLAS/FORT WORTH METROPLEX

CITY           SKY/WX    TMP DP  RH WIND       PRES   REMARKS
DFW AIRPORT    MOSUNNY   96  54  24 S13       29.93F
FTW MEACHAM    MOSUNNY   96  56  26 SE7       29.93F
DAL-EXECUTIVE  SUNNY     97  55  24 VRB3      29.94F
GRAND PRAIRIE  SUNNY     93  57  29 W3        29.95F
ADDISON        MOSUNNY   95  54  24 S5        29.97F
MESQUITE       CLEAR     93  54  26 S3        29.95F
LANCASTER      CLEAR     94  51  23 E10       29.95F
$$

NORTH CENTRAL TEXAS

CITY           SKY/WX    TMP DP  RH WIND       PRES   REMARKS
SHRMAN/DENISON PTCLDY    96  61  31 S5        29.97F
GAINESVILLE    CLOUDY    91  60  35 S8        29.98S
BRIDGEPORT     NOT AVBL
DENTON         MOSUNNY   94  57  28 SE10      29.95F
WAXAHACHIE     CLEAR     95  58  29 SW5       29.96F
GRANBURY       CLOUDY    96  56  26 SE6       29.96F
$$

WESTERN NORTH TEXAS

CITY           SKY/WX    TMP DP  RH WIND       PRES   REMARKS
WICHITA FALLS  PTSUNNY   88  69  53 SE15      29.95F
VERNON         PTCLDY    93  60  33 S10       29.94F
BRECKENRIDGE   CLEAR     94  58  30 S7G16     29.96F
COMANCHE       SUNNY     92  62  37 SE5       29.98F
$$

CENTRAL AND SOUTH CENTRAL TEXAS

CITY           SKY/WX    TMP DP  RH WIND       PRES   REMARKS
AUSTIN/BERGSTM MOSUNNY   94  61  33 E9        29.92F
WACO           SUNNY     96  57  27 E9        29.94F
HILLSBORO      CLEAR     95  53  24 CALM      29.94F
TEMPLE         SUNNY     97  59  28 E6        29.94F
KILLEEN-GRAY   MOSUNNY   94  58  29 SE10      29.94F
FORT HOOD      SUNNY     94  57  28 VRB6      29.93F
GEORGETOWN     MOSUNNY   95  59  30 S7        29.93F
LAGO VISTA     FAIR      94  57  29 E5        29.97F
SAN MARCOS     MOSUNNY   95  61  31 E7        29.94F
NEW BRAUNFELS  SUNNY     97  63  32 VRB5      29.91F
RANDOLPH AFB   MOSUNNY   94  60  32 VRB5      29.93F
SAN ANTONIO    MOSUNNY   95  60  31 VRB6      29.94F
STINSON        SUNNY     95  63  34 E6        29.91F
PLEASANTON     NOT AVBL
LA GRANGE      SUNNY     95  65  36 NW3       29.90F
GIDDINGS       CLEAR     95  59  29 NE8       29.96F
$$

EAST TEXAS

CITY           SKY/WX    TMP DP  RH WIND       PRES   REMARKS
PARIS          SUNNY     95  57  28 S8        29.96F
CLARKSVILLE    NOT AVBL
TYLER          SUNNY     96  57  27 SE8       29.95F
LONGVIEW       SUNNY     97  59  28 NE7       29.94F
PALESTINE      CLEAR     95  55  25 SE6       29.95F
NACOGDOCHES    SUNNY     93  59  31 S6        29.93S
$$

TEXAS HILL COUNTRY AND EDWARDS PLATEAU

CITY           SKY/WX    TMP DP  RH WIND       PRES   REMARKS
LLANO          CLEAR     93  61  33 SE3       29.97F
HORSESHOE BAY  FAIR      96  58  27 S6        29.96F
KERRVILLE      MOSUNNY   92  64  40 CALM      29.99F
FREDERICKSBRG  SUNNY     90  58  34 NE3       29.99F
ROCKSPRINGS    PTCLDY    91  61  35 SE5       30.03F
HONDO          SUNNY     95  62  33 VRB6      29.95F
UVALDE         CLEAR     93  63  36 E6        29.93F
DEL RIO        SUNNY     96  63  33 SE9       29.91F
$$

SOUTHEAST TEXAS

CITY           SKY/WX    TMP DP  RH WIND       PRES   REMARKS
COLLEGE STN    SUNNY     95  59  30 VRB5      29.91F
CALDWELL       CLEAR     93  57  29 NE6       29.95F
CROCKETT       CLEAR     99  63  30 S6        29.95F
BRENHAM        SUNNY     95  64  35 CALM      29.92F
HUNTSVILLE     SUNNY     95  58  28 VRB5      29.92F
CONROE         SUNNY     96  56  26 VRB6      29.91F
HOUSTON BUSH   MOSUNNY   97  61  30 CALM      29.90F
HOUSTON HOBBY  MOSUNNY   97  58  27 E8        29.89F
PERLAND        SUNNY     96  60  30 VRB7      29.90F
WHARTON        CLEAR     95  62  33 NE8G16    29.90F
$$

THE UPPER TEXAS COAST

CITY           SKY/WX    TMP DP  RH WIND       PRES   REMARKS
ORANGE         PTCLDY    95  49  21 CALM      29.91F
PORT ARTHUR    SUNNY     97  59  28 VRB6      29.89F
GALVESTON      PTSUNNY   93  66  40 E10       29.91F
ANGLETON       SUNNY     95  63  34 CALM      29.89F
BAY CITY       CLEAR     96  63  33 CALM      29.89F
$$

TEXAS COASTAL BEND, RIO GRANDE PLAINS DEEP SOUTH TEXAS

CITY           SKY/WX    TMP DP  RH WIND       PRES   REMARKS
VICTORIA       SUNNY     97  66  36 N8        29.90F
BEEVILLE       FAIR      92  72  50 E10       29.90F
ROCKPORT       SUNNY     93  66  40 E9        29.89F
PORT ARANSAS   CLEAR     87  76  68 E9        29.90F
PORT LAVACA    CLEAR     93  69  45 E5        29.90F
CORPUS CHRISTI MOSUNNY   93  71  48 E6        29.89F
KINGSVILLE NAS MOSUNNY   96  73  47 MISG      29.88F
COTULLA        MOSUNNY   97  61  30 VRB3      29.90F
LAREDO         SUNNY     97  62  31 NE9       29.91F
BROWNSVILLE    PTSUNNY   82  75  79 E3        29.91F
PORT ISABEL    PTSUNNY   89  72  56 E12G22    29.90F
HEBBRONVILLE     N/A     95  61  32 S3        29.91F
MCALLEN        MOSUNNY   97  70  41 NE6       29.88F
WESLACO        MOSUNNY   96  68  38 SE7       29.88F
FALFURRIAS     MOCLDY    95  68  41 E8        29.88F
EDINBURG       PTCLDY    96  69  40 SE6       29.88F
$$



USA.gov is the U.S. government's official web portal to all federal, state and local government web resources and services.